Location: S�deilles
(46.7500°N, 6.9329°E)
Time: 19:15:29
(UTC+00:00)

Daily predictions for brighter satellites

Satellite Brightness Start Highest point End
(mag) Time Altitude Azimuth Time Altitude Azimuth Time Altitude Azimuth
Cosmos 2333 Rocket 2.8 17:47:56 10° S 17:53:06 37° ESE 17:58:19 10° NE
Cosmos 1939 Rocket 4.4 17:50:28 10° S 17:54:07 42° W 17:57:50 10° NNW
Cosmos 1295 Rocket 4.5 17:48:45 10° S 17:54:56 72° E 18:01:04 10° NNE
Meteor 2-4 Rocket 3.8 17:52:41 10° N 17:58:34 69° ENE 18:04:29 10° SSE
Cosmos 2322 Rocket 3.0 17:53:41 10° SW 17:59:11 55° WNW 18:04:44 10° NNE
Helios 1A Rocket 3.5 17:56:12 10° SE 17:59:52 35° ENE 18:03:34 10° N
Lacrosse 4 Rocket 2.0 17:56:14 10° S 18:00:19 39° ESE 18:04:31 10° NE
CZ-2D R/B 4.1 17:57:09 10° S 18:00:54 56° W 18:04:41 10° NNW
Nadezhda 3 Rocket 4.2 17:54:51 10° N 18:01:16 85° W 18:07:37 10° S
GP-B 3.6 17:57:33 10° SSE 18:01:40 39° E 18:05:50 10° NNE
ARGOS 3.3 17:58:44 10° SSE 18:04:01 56° ENE 18:09:19 10° N
Cosmos 1869 Rocket 4.2 18:04:13 10° SSE 18:08:07 33° E 18:12:04 10° NNE
CZ-4 R/B 1.3 18:05:31 10° SSE 18:09:23 90° ESE 18:13:22 10° NNW
Cosmos 2219 Rocket 2.5 18:04:17 10° S 18:09:33 44° ESE 18:14:51 10° NE
CZ-4B R/B 2.1 18:07:33 10° N 18:10:35 54° WNW 18:13:37 10° SSW
Cosmos 2154 Rocket 4.3 18:06:04 10° SSW 18:12:16 74° W 18:18:30 10° N
FALCON 9 DEB 3.3 18:11:05 10° NW 18:14:10 49° NNE 18:16:47 13° E
ERS-2 2.3 18:11:36 10° NNE 18:15:09 47° E 18:18:41 10° S
CZ-2C R/B 3.0 18:10:22 10° NNE 18:15:32 43° E 18:20:33 10° S
Cosmos 1238 Rocket 4.0 18:13:24 10° SE 18:16:17 19° E 18:18:53 10° NE
Cosmos 1689 Rocket 2.1 18:13:54 10° NNE 18:16:44 50° E 18:19:33 10° S
Cosmos 1378 4.1 18:15:35 10° NNE 18:18:48 27° ENE 18:21:59 10° SE
SL-08 RB Rocket 3.9 18:14:33 10° SE 18:18:56 51° ENE 18:23:23 10° N
USA 305 3.8 18:15:15 10° NW 18:19:15 37° NNE 18:22:40 13° E
H-2A R/B 4.4 18:17:33 10° N 18:20:58 26° WNW 18:24:22 10° WSW
NOSS 3-2 (A) 4.0 18:17:12 10° S 18:22:04 32° ESE 18:27:29 10° NE
CREW DRAGON DEMO-1 DEB 3.3 18:19:34 10° SW 18:22:12 37° SE 18:23:59 17° E
HJ-1C 3.2 18:20:12 10° SSE 18:23:30 73° ENE 18:26:48 10° N
FALCON 9 DEB 3.3 18:20:31 10° NW 18:23:39 50° NNE 18:25:51 17° E
COSMOS 2428 2.9 18:18:51 10° S 18:24:15 48° ESE 18:29:43 10° NE
Cosmos 1733 Rocket 4.5 18:22:45 10° SE 18:25:36 17° E 18:28:28 10° NE
SL-16 R/B 4.1 18:22:48 10° WSW 18:27:46 30° NW 18:32:45 10° NNE
USA 307 3.7 18:29:01 10° NW 18:33:04 39° NNE 18:35:52 18° ENE
SL-8 Rocket 3.9 18:27:15 10° S 18:33:24 69° E 18:39:33 10° NNE
CENTAUR R/B 3.3 18:29:06 10° SSE 18:33:52 27° ESE 18:39:17 10° NE
USA 306 3.7 18:30:17 10° NW 18:34:22 40° NNE 18:37:06 18° E
ATLAS CENTAUR R/B 3.2 18:32:36 10° W 18:35:42 25° NW 18:38:52 10° NNE
Cosmos 1066 Rocket 4.4 18:31:35 10° N 18:37:17 56° ENE 18:43:01 10° SSE
Cosmos 1743 3.8 18:36:57 10° SE 18:40:05 24° E 18:43:15 10° NE
Cosmos 1666 2.9 18:38:05 10° SSW 18:41:48 72° W 18:45:34 10° N
Cosmos 1703 Rocket 4.2 18:39:17 10° NNW 18:43:35 57° W 18:47:50 10° S
USA 308 3.6 18:39:51 10° NW 18:43:57 42° NNE 18:46:15 22° ENE
CSL-04 Rocket 3.7 18:39:26 10° SSE 18:44:59 87° WSW 18:50:30 10° NNW
Cosmos 2322 3.8 18:39:26 10° SSW 18:45:10 82° WNW 18:50:56 10° NNE
Cosmos 1844 Rocket 4.4 18:42:35 10° NW 18:47:34 35° WSW 18:52:33 10° S
Meteor 1-23 Rocket 4.3 18:42:12 10° N 18:47:42 52° ENE 18:53:13 10° SSE
Okean-O 3.8 18:44:00 10° S 18:48:15 45° W 18:52:31 10° NNW
BREEZE-M DEB (TANK) 3.1 18:47:20 10° SW 18:49:35 39° SSE 18:50:06 35° ESE
Cosmos 2366 rocket 4.0 18:45:20 10° S 18:51:38 77° E 18:58:01 10° NNE
ASTEX 1 3.6 18:47:10 10° NNE 18:51:52 44° E 18:56:31 10° SSE
H-2A R/B 3.5 18:47:10 10° S 18:52:20 43° W 18:57:30 10° NNW
CSL-04 Debris 4.5 18:47:11 10° S 18:52:37 72° WSW 18:58:07 10° NNW
Cosmos 1674 Rocket 4.5 18:51:18 10° NNE 18:54:59 26° ENE 18:55:16 26° ENE
SJ-6B 3.1 18:52:44 21° SE 18:55:09 47° ENE 18:59:00 10° N
Ariane Rocket 3.3 18:55:34 20° SE 18:58:44 45° ENE 19:03:36 10° N
Cosmos 2221 Rocket 3.7 18:54:46 10° N 18:59:08 54° ENE 19:02:10 19° SSE
USA 186 1.1 18:59:36 63° NE 18:59:36 63° NE 19:02:04 10° N
Cosmos 1763 Rocket 4.2 18:57:14 10° SSE 19:01:46 29° E 19:06:19 10° NE
OBJECT-B 1.1 19:02:10 42° ENE 19:02:10 42° ENE 19:05:10 10° N
NOSS 3-2 (C) 3.8 18:58:39 10° S 19:03:43 37° ESE 19:08:11 15° ENE
Meteor 1-11 Rocket 3.7 18:59:57 10° SSW 19:05:38 84° W 19:11:15 10° N
Cosmos 1378 Rocket 4.4 19:05:31 10° N 19:09:21 31° ENE 19:09:21 31° ENE
Cosmos 2360 Rocket 4.0 19:04:54 10° WSW 19:09:52 31° NW 19:14:53 10° NNE
Cosmos 468 Rocket 4.4 19:08:30 10° S 19:13:22 38° ESE 19:18:15 10° NE
FALCON 9 DEB 2.9 19:10:18 10° WNW 19:13:29 69° SSW 19:13:45 64° S
Cosmos 1943 Rocket 3.7 19:10:32 10° N 19:14:37 20° NE 19:15:25 19° NE
Cosmos 1821 Rocket 4.0 19:09:56 10° SSE 19:15:54 52° E 19:21:51 10° NNE
Cosmos 2237 Rocket 2.3 19:11:14 10° S 19:16:39 48° ESE 19:22:08 10° NE
SJ 16-02 1.3 19:12:20 10° NNW 19:16:47 84° WSW 19:19:19 25° SSE
Cosmos 1727 Rocket 3.9 19:10:55 10° N 19:17:08 88° ENE 19:23:22 10° S
Cosmos 1544 2.9 19:14:09 10° S 19:17:46 70° E 19:21:26 10° NNE
DMSP B5D2-2 4.0 19:12:42 10° NNE 19:17:58 87° WNW 19:23:10 10° SSW
Cosmos 2278 Rocket 2.1 19:13:19 10° NNW 19:19:02 82° ENE 19:22:11 28° SSE
MOS 1 4.2 19:15:42 21° SSE 19:19:34 69° ENE 19:25:14 10° N
Cosmos 1536 3.4 19:16:15 10° SSW 19:20:11 58° W 19:24:08 10° N
Okean 3 4.5 19:16:48 10° NNW 19:20:56 47° W 19:25:03 10° SSW
FALCON 9 DEB 3.4 19:18:13 10° WNW 19:21:20 52° SW 19:21:22 52° SSW
USA 81 4.0 19:16:34 10° SSE 19:21:42 57° E 19:26:51 10° NNE
SL-4 R/B 3.5 19:19:03 10° W 19:21:51 23° SW 19:22:57 19° SSW
SeaSat 1 2.5 19:19:44 10° NNE 19:24:42 82° WNW 19:29:38 10° SSW
SPOT 3 Rocket 4.0 19:24:25 39° E 19:24:54 40° ENE 19:29:46 10° N
Abrixas rocket 4.1 19:25:34 10° W 19:26:46 19° WSW 19:26:46 19° WSW
MetOp-A 4.4 19:24:13 10° S 19:29:31 67° WSW 19:34:53 10° NNW
Cosmos 1934 Rocket 4.4 19:30:06 38° E 19:30:06 38° E 19:35:27 10° NNE
Resurs 01 Rocket 2.4 19:31:41 36° NE 19:31:41 36° NE 19:35:00 10° N
SME Rocket 3.8 19:25:13 10° NNE 19:32:36 86° ESE 19:37:25 10° SSW
Meteor 2-20 Rocket 4.3 19:27:06 10° N 19:33:16 79° E 19:37:10 24° SSE
USA 234 3.3 19:33:09 35° E 19:35:40 53° SE 19:42:01 10° SSW
Gbstr 26 Del rocket 3.4 19:32:18 10° WNW 19:37:06 84° NNE 19:38:19 56° ESE
Cosmos 2333 Rocket 3.5 19:32:00 10° WSW 19:37:20 40° NW 19:42:44 10° NNE
Lacrosse 4 Rocket 3.5 19:35:14 10° WSW 19:39:07 29° NW 19:43:05 10° NNE
Cosmos 1937 Rocket 3.6 19:34:42 10° NNW 19:39:45 52° ENE 19:39:49 52° ENE
Cosmos 2123 Rocket 4.1 19:34:13 10° N 19:40:18 50° ENE 19:41:01 48° E
USA 238 DEB 3.5 19:36:55 10° SW 19:43:30 88° ESE 19:50:26 10° NE
USA 238 3.5 19:37:02 10° SW 19:43:36 87° SE 19:50:32 10° NE
Resurs 1-3 3.4 19:45:27 83° SSE 19:45:37 89° E 19:50:03 10° NNW
DELTA 2 R/B (1) 4.1 19:41:17 10° WSW 19:46:27 40° S 19:46:36 40° S
IRS-1A Rocket 4.5 19:46:16 23° S 19:49:46 68° WSW 19:55:18 10° NNW
Cosmos 2219 Rocket 3.8 19:48:33 10° WSW 19:53:37 34° NW 19:58:44 10° NNE
Terra 4.3 20:00:53 11° NNE 20:00:53 11° NNE 20:01:10 10° NNE
USA 305 3.4 19:55:15 10° WNW 19:58:46 58° WNW 19:58:46 58° WNW
Cosmos 1980 3.8 19:55:44 10° SSW 20:01:22 76° WNW 20:07:04 10° NNE
Cosmos 1733 Rocket 3.9 19:58:48 10° SSW 20:02:59 48° WNW 20:07:14 10° N
COSMOS 2428 4.4 20:03:41 10° WSW 20:08:44 32° NW 20:13:51 10° NNE
Meteor 2-9 Rocket 4.4 20:10:29 54° NNE 20:10:29 54° NNE 20:14:33 10° NNE
NOSS 3-2 (A) 4.0 20:06:53 10° WSW 20:12:30 55° NW 20:19:02 10° NE
USA 307 4.0 20:09:03 10° WNW 20:12:00 42° WNW 20:12:00 42° WNW
USA 306 4.1 20:10:18 10° WNW 20:13:13 40° W 20:13:13 40° W
Cosmos 1898 Rocket 4.0 20:14:10 10° NNW 20:19:17 55° WSW 20:19:30 54° WSW
Cosmos 2369 Rocket 3.6 20:14:32 10° N 20:18:00 27° NNE 20:18:00 27° NNE
CENTAUR R/B 2.8 20:17:51 10° SW 20:23:48 67° NW 20:30:59 10° NE
OBJECT-B 4.2 20:35:13 11° WNW 20:35:13 11° WNW 20:35:39 10° WNW
Cosmos 2297 4.4 20:40:20 10° NNW 20:44:36 51° NW 20:44:36 51° NW
NOSS 3-2 (C) 4.2 20:48:48 10° WSW 20:54:23 49° NW 20:55:56 41° N
Cosmos 1943 Rocket 3.3 20:53:29 10° NNW 20:56:58 39° NNW 20:56:58 39° NNW
Cosmos 2237 Rocket 3.8 20:55:51 10° WSW 21:00:56 32° NW 21:06:03 10° NNE
Resurs 01 Rocket 4.2 21:09:14 18° WNW 21:09:14 18° WNW 21:11:01 10° NW
USA 234 4.0 21:20:31 46° W 21:20:31 46° W 21:25:11 10° WSW
CENTAUR R/B 4.5 22:10:28 10° WNW 22:15:57 27° NNW 22:22:13 10° NE
